x

9442396 - La Push, Wa (lapw1) Weather Station

7:36pm - Sat 16th Dec 2017 All times are PST. -8 hours from GMT.

  • Wind
    8mph, 16mph gusts
  • Sea Temp 41°f
  • Air Temp 45°f
  • Sea Pressure 1023.5mb
  • 9442396 - La Push, Wa
  • 9442396 - La Push, Wa

More Historic Weather Station data

Upgrade to MSW Pro to gain access to the past 30 days of data for over 8000 Wavebouys and Weather Stations around the globe.

Join

Comparision Forecast

View Surf forecast
   
Sat 12/16 7:36pm 8 16 mph 1023.5mb 41f 45f
7:30pm 6 13 mph 1023.6mb 41f 45f
7:24pm 10 14 mph 1023.7mb 41f 45f
7:18pm 8 15 mph 1023.9mb 42f 45f
7:12pm 9 14 mph 1024.2mb 42f 45f
7:06pm 7 15 mph 1024.3mb 42f 45f
7:00pm 7 11 mph 1024.4mb 42f 45f
6:36pm 6 11 mph 1024.6mb 42f 45f
6:30pm 6 14 mph 1024.5mb 43f 45f
6:24pm 7 13 mph 1024.4mb 43f 45f
6:18pm 8 11 mph 1024.3mb 44f 45f
6:12pm 7 13 mph 1024.1mb 44f 45f
6:06pm 7 16 mph 1024.2mb 44f 45f
6:00pm 7 11 mph 1024.3mb 44f 45f
5:36pm 6 9 mph 1024.5mb 43f 45f
5:30pm 3 11 mph 1024.5mb 43f 45f
5:24pm 5 8 mph 1024.5mb 42f 45f
5:18pm 6 8 mph 1024.6mb 42f 45f
5:12pm 8 11 mph 1024.6mb 42f 45f
5:06pm 6 13 mph 1024.5mb 42f 45f
5:00pm 5 14 mph 1024.5mb 42f 45f
4:36pm 8 14 mph 1024.4mb 44f 45f
4:30pm 6 10 mph 1024.3mb 42f 45f
4:24pm 5 9 mph 1024.5mb 42f 45f
4:18pm 6 11 mph 1024.7mb 42f 45f
4:12pm 8 13 mph 1024.9mb 42f 45f
4:06pm 5 9 mph 1024.8mb 42f 45f
4:00pm 9 11 mph 1024.8mb 42f 45f
3:36pm 5 8 mph 1025mb 42f 45f
3:30pm 6 9 mph 1025.1mb 42f 45f
3:24pm 6 10 mph 1025.2mb 43f 45f
3:18pm 5 7 mph 1025.2mb 43f 45f
3:12pm 5 7 mph 1025.1mb 43f 45f
3:06pm 2 7 mph 1025.1mb 43f 45f
3:00pm 6 8 mph 1025mb 43f 45f
2:36pm 6 9 mph 1025.3mb 45f 45f
2:30pm 5 8 mph 1025.2mb 47f 45f
2:24pm 2 6 mph 1025.2mb 46f 45f
2:18pm 3 5 mph 1025.4mb 47f 45f
2:12pm 3 6 mph 1025.5mb 47f 45f
2:06pm 3 7 mph 1025.6mb 48f 45f
2:00pm 2 5 mph 1025.7mb 48f 45f
1:36pm 2 3 mph 1025.9mb 49f 44f
1:30pm 3 5 mph 1025.9mb 49f 45f
1:24pm 1 3 mph 1025.9mb 49f 44f
1:18pm 2 3 mph 1026mb 49f 45f
1:12pm 2 3 mph 1026.1mb 49f 45f
1:06pm 2 3 mph 1026.3mb 49f 45f
1:00pm  -  3 mph 1026.4mb 50f 44f
12:36pm 2 5 mph 1026.7mb 49f 44f
12:30pm 2 3 mph 1026.8mb 50f 44f
12:24pm 3 3 mph 1026.9mb 50f 44f
12:18pm 1 2 mph 1027.1mb 51f 44f
12:12pm 1 2 mph 1027.1mb 51f 44f
12:06pm 2 2 mph 1027.3mb 51f 44f
12:00pm 2 3 mph 1027.3mb 51f 44f
11:36am 5 5 mph 1027.2mb 51f 44f
11:30am 2 3 mph 1027.3mb 51f 44f
11:24am 2 5 mph 1027.2mb 51f 44f
11:18am 2 3 mph 1027.2mb 51f 44f
11:12am 2 5 mph 1027.2mb 51f 44f
11:06am 2 3 mph 1027.3mb 51f 44f
11:00am 2 5 mph 1027.3mb 51f 44f
10:36am 2 3 mph 1026.9mb 51f 43f
10:30am 2 3 mph 1026.8mb 51f 43f
10:24am 2 3 mph 1026.8mb 51f 43f
10:18am 2 5 mph 1026.8mb 51f 43f
10:12am 2 5 mph 1026.8mb 51f 43f
10:06am 3 5 mph 1026.7mb 51f 43f
10:00am 2 6 mph 1026.7mb 51f 43f
9:36am 6 10 mph 1026.7mb 51f 43f
9:30am 6 9 mph 1026.8mb 51f 44f
9:24am 6 8 mph 1026.8mb 51f 44f
9:18am 6 7 mph 1026.8mb 51f 44f
9:12am 3 5 mph 1026.8mb 50f 44f
9:06am 3 5 mph 1026.7mb 50f 44f
9:00am 3 6 mph 1026.5mb 50f 44f
8:36am 3 5 mph 1027mb 49f 46f
8:30am 3 6 mph 1026.7mb 49f 48f
8:24am 6 9 mph 1026.6mb 48f 47f
8:18am 8 11 mph 1026.5mb 48f 46f
8:12am 5 9 mph 1026.3mb 49f 46f
8:06am 5 7 mph 1025.9mb 49f 48f
8:00am 7 9 mph 1025.8mb 49f 48f
7:36am  -  mph 1026.1mb 49f -
7:30am  -  mph 1026.2mb 48f -
7:18am  -  mph 1026.4mb 48f -
7:12am  -  mph 1026.3mb 47f -
7:00am  -  mph 1026.4mb 47f -
6:36am  -  mph 1026mb 47f -
6:30am  -  mph 1026mb 47f -
6:24am  -  mph 1026.1mb 47f -
6:18am  -  mph 1026mb 47f -
6:12am  -  mph 1026mb 47f -
6:06am  -  mph 1026mb 46f -
6:00am  -  mph 1025.9mb 45f -
5:36am 13 15 mph 1025.6mb 43f 48f
5:30am 13 16 mph 1025.7mb 43f 48f
5:24am 13 16 mph 1025.8mb 43f 48f
5:18am 13 16 mph 1026mb 43f 48f
5:12am 14 16 mph 1026.1mb 42f 48f
5:06am 13 18 mph 1026.1mb 42f 48f
5:00am 14 16 mph 1026.3mb 42f 48f
4:36am 11 15 mph 1026mb 42f 48f
4:30am 14 18 mph 1025.9mb 42f 48f
4:24am 14 17 mph 1026mb 42f 48f
4:18am 13 16 mph 1026mb 42f 48f
4:12am 13 17 mph 1026.1mb 42f 48f
4:06am 15 17 mph 1026.1mb 42f 48f
4:00am 15 18 mph 1026.1mb 42f 48f
3:36am 16 20 mph 1026.5mb 43f 48f
3:30am 15 20 mph 1026.3mb 44f 48f
3:24am 15 21 mph 1026.4mb 43f 48f
3:18am 16 21 mph 1026.4mb 43f 48f
3:12am 18 22 mph 1026.5mb 44f 48f
3:06am 18 22 mph 1026.4mb 44f 48f
3:00am 15 18 mph 1026.4mb 44f 48f
2:36am 15 18 mph 1026.3mb 44f 48f
2:30am 15 18 mph 1026.3mb 45f 48f
2:24am 15 21 mph 1026.3mb 46f 48f
2:18am 16 21 mph 1026.3mb 46f 48f
2:12am 17 22 mph 1026.4mb 46f 48f
2:06am 18 23 mph 1026.3mb 46f 48f
2:00am 18 22 mph 1026.2mb 46f 48f
1:36am 20 23 mph 1026.4mb 47f 48f
1:30am 17 22 mph 1026.1mb 47f 48f
1:24am 18 22 mph 1026.1mb 47f 48f
1:18am 17 22 mph 1026.1mb 47f 48f
1:12am 15 22 mph 1026.1mb 47f 48f
1:06am 17 23 mph 1026.2mb 47f 48f
1:00am 17 23 mph 1026.2mb 47f 48f
12:36am 20 22 mph 1026.2mb 47f 48f
12:30am 20 26 mph 1026.2mb 47f 48f
12:24am 20 24 mph 1026.3mb 47f 48f
12:18am 18 28 mph 1026.3mb 47f 48f
12:12am 21 25 mph 1026.5mb 47f 48f
12:06am 21 25 mph 1026.3mb 47f 48f
12:00am 22 30 mph 1026.4mb 47f 48f
Fri 12/15 11:36pm 16 22 mph 1026.1mb 47f 48f
11:30pm 17 21 mph 1026.2mb 47f 48f
11:24pm 16 21 mph 1026mb 47f 48f
11:18pm 16 22 mph 1026.1mb 46f 48f
11:12pm 18 22 mph 1026.1mb 46f 48f
11:06pm 17 21 mph 1026.1mb 47f 48f
11:00pm 20 24 mph 1026.1mb 46f 48f
10:36pm 20 23 mph 1026mb 47f 48f
10:30pm 18 24 mph 1025.9mb 46f 48f
10:24pm 21 26 mph 1025.8mb 46f 48f
10:18pm 18 24 mph 1025.8mb 46f 48f
10:12pm 21 25 mph 1025.8mb 46f 48f
10:06pm 20 25 mph 1025.6mb 46f 48f
10:00pm 22 25 mph 1025.6mb 46f 48f
9:36pm 22 25 mph 1025.8mb 45f 48f
9:30pm 22 26 mph 1025.8mb 46f 48f
9:24pm 22 26 mph 1025.9mb 45f 48f
9:18pm 21 28 mph 1025.9mb 45f 48f
9:12pm 23 31 mph 1026mb 45f 48f
9:06pm 24 30 mph 1025.8mb 45f 48f
9:00pm 23 29 mph 1025.7mb 45f 48f
8:36pm 25 31 mph 1025.8mb 45f 48f
8:30pm 22 29 mph 1025.6mb 44f 48f
8:24pm 23 31 mph 1025.6mb 44f 48f
8:18pm 25 31 mph 1025.7mb 44f 48f
8:12pm 26 31 mph 1025.6mb 43f 48f
8:06pm 25 31 mph 1025.5mb 43f 48f
8:00pm 23 31 mph 1025.4mb 42f 48f
7:54pm 26 31 mph 1025.4mb 42f 48f
7:48pm 25 30 mph 1025.5mb 41f 48f
7:36pm 23 29 mph 1025.4mb 40f 48f
7:30pm 23 29 mph 1025.4mb 40f 48f
7:24pm 23 31 mph 1025.4mb 40f 48f
7:18pm 26 32 mph 1025.4mb 39f 48f
7:12pm 24 32 mph 1025.4mb 39f 48f
7:06pm 26 32 mph 1025.5mb 39f 48f
7:00pm 29 33 mph 1025.4mb 39f 48f
6:54pm 28 32 mph 1025.4mb 40f 48f
6:48pm 28 31 mph 1025.4mb 39f 48f
6:36pm 25 30 mph 1025.3mb 39f 48f
6:30pm 22 28 mph 1025.2mb 39f 48f
6:24pm 25 29 mph 1025.2mb 39f 48f
6:18pm 23 28 mph 1025.1mb 40f 49f
6:12pm 25 29 mph 1025.2mb 39f 48f
6:06pm 25 32 mph 1025.1mb 39f 48f
6:00pm 23 29 mph 1024.9mb 39f 48f
5:54pm 24 29 mph 1024.9mb 39f 48f
5:48pm 25 31 mph 1025mb 39f 48f
5:36pm 25 31 mph 1025mb 39f 48f
5:30pm 23 30 mph 1024.7mb 39f 48f
5:24pm 21 29 mph 1024.7mb 39f 48f
5:18pm 24 29 mph 1024.6mb 39f 48f
5:12pm 25 32 mph 1024.7mb 39f 48f
5:06pm 25 31 mph 1024.6mb 40f 48f
5:00pm 22 30 mph 1024.4mb 40f 48f
4:54pm 24 28 mph 1024.3mb 40f 48f
4:48pm 22 28 mph 1024.3mb 40f 48f
4:36pm 22 33 mph 1024.5mb 40f 48f
4:30pm 28 33 mph 1024.8mb 39f 48f
4:24pm 25 30 mph 1024.5mb 39f 48f
4:18pm 26 31 mph 1024.5mb 39f 48f
4:12pm 28 32 mph 1024.6mb 39f 48f
4:06pm 23 31 mph 1024.3mb 39f 48f
4:00pm 22 29 mph 1024.5mb 38f 48f
3:54pm 21 28 mph 1024.2mb 38f 49f
3:48pm 22 26 mph 1024.2mb 38f 48f
3:36pm 22 25 mph 1024mb 38f 48f
3:30pm 20 24 mph 1024mb 38f 48f
3:24pm 20 25 mph 1024mb 39f 48f
3:18pm 20 25 mph 1024mb 38f 48f
3:12pm 20 24 mph 1023.9mb 39f 48f
3:06pm 17 21 mph 1023.7mb 39f 48f
3:00pm 16 20 mph 1023.5mb 39f 48f
2:54pm 15 17 mph 1023.3mb 39f 48f
2:48pm 16 20 mph 1023.2mb 40f 48f
2:36pm 17 22 mph 1023.2mb 40f 48f
2:30pm 16 20 mph 1023.2mb 40f 48f
2:24pm 18 21 mph 1023.2mb 40f 48f
2:18pm 16 21 mph 1023.1mb 40f 48f
2:12pm 16 18 mph 1023.1mb 41f 48f
2:06pm 17 22 mph 1023.1mb 41f 48f
2:00pm 20 24 mph 1023.3mb 41f 49f
1:54pm 22 24 mph 1023.3mb 42f 48f
1:48pm 17 22 mph 1023.1mb 44f 48f
1:36pm 15 21 mph 1023.1mb 44f 49f
1:30pm 17 21 mph 1023.2mb 44f 49f
1:24pm 16 21 mph 1023.2mb 44f 49f
1:18pm 18 22 mph 1023.3mb 44f 49f
1:12pm 17 22 mph 1023.3mb 45f 49f
1:06pm 15 16 mph 1023.2mb 45f 49f
1:00pm 15 18 mph 1023.1mb 46f 49f
12:54pm 17 21 mph 1023.2mb 45f 49f
12:48pm 16 22 mph 1023.4mb 45f 49f
12:36pm 16 18 mph 1023.4mb 45f 48f
12:30pm 14 20 mph 1023.3mb 46f 49f
12:24pm 17 20 mph 1023.4mb 46f 49f
12:18pm 13 16 mph 1023.4mb 46f 49f
12:12pm 14 18 mph 1023.5mb 46f 49f
12:06pm 16 21 mph 1023.7mb 46f 49f
12:00pm 14 16 mph 1023.6mb 45f 49f
11:54am 13 17 mph 1023.7mb 46f 49f
11:36am 16 20 mph 1023.7mb 46f 49f
10:36am 5 15 mph 1023.9mb 46f 45f
10:30am 3 7 mph 1023.9mb 46f 45f
10:24am 7 14 mph 1023.7mb 46f 43f
10:18am 2 7 mph 1023.8mb 46f 42f
10:12am 5 7 mph 1023.7mb 46f 42f
10:06am 3 6 mph 1023.7mb 46f 42f
10:00am 1 6 mph 1023.7mb 46f 42f
9:54am 3 5 mph 1023.7mb 46f 42f
9:48am 2 5 mph 1023.5mb 46f 42f
9:36am 3 5 mph 1023.4mb 46f 42f
9:30am 3 5 mph 1023.5mb 46f 42f
9:24am 3 6 mph 1023.4mb 46f 42f
9:18am 3 5 mph 1023.4mb 46f 42f
9:12am 2 3 mph 1023.5mb 46f 42f
9:06am  -  3 mph 1023.6mb 46f 42f
9:00am 3 3 mph 1023.5mb 45f 43f
8:54am 2 2 mph 1023.4mb 45f 42f
8:48am 2 3 mph 1023.4mb 45f 43f
8:36am 3 5 mph 1023.2mb 46f 42f
8:30am 2 3 mph 1023mb 46f 42f
8:24am 2 3 mph 1022.9mb 46f 42f
8:18am 2 3 mph 1022.8mb 46f 42f
8:12am 2 3 mph 1022.7mb 46f 42f
8:06am 3 5 mph 1022.6mb 46f 43f
8:00am 3 5 mph 1022.5mb 46f 42f
7:54am 5 6 mph 1022.5mb 46f 42f
7:48am 3 7 mph 1022.5mb 46f 42f
7:36am 5 6 mph 1022.5mb 46f 42f
7:30am 5 6 mph 1022.3mb 46f 42f
7:24am 5 6 mph 1022.2mb 46f 42f
7:18am 6 6 mph 1022.2mb 46f 42f
7:12am 5 6 mph 1022.2mb 46f 42f
7:06am 5 7 mph 1022.2mb 46f 42f
7:00am 5 7 mph 1022.1mb 45f 42f
6:54am 6 7 mph 1022mb 45f 42f
6:48am 6 6 mph 1022mb 45f 42f
6:36am 5 6 mph 1022.2mb 45f 42f
6:30am 5 7 mph 1022.1mb 45f 42f
6:24am 5 7 mph 1022.1mb 45f 42f
6:18am 6 7 mph 1021.9mb 45f 42f
6:12am 6 7 mph 1022.1mb 45f 42f
6:06am 5 6 mph 1022.2mb 45f 42f
6:00am 5 8 mph 1022mb 45f 42f
5:54am 5 6 mph 1022.1mb 45f 42f
5:48am 5 6 mph 1022.1mb 45f 42f
5:36am 6 7 mph 1021.9mb 45f 42f
5:30am 7 7 mph 1022.1mb 44f 41f
5:24am 5 6 mph 1022.2mb 44f 41f
5:18am 3 7 mph 1022mb 43f 41f
5:12am 6 8 mph 1021.8mb 43f 41f
5:06am 6 7 mph 1021.8mb 42f 42f
5:00am 6 6 mph 1022.1mb 42f 42f
4:54am 6 6 mph - - 42f
4:48am 5 5 mph 1022.3mb 42f 42f
4:36am 5 6 mph 1022.4mb 41f 42f
4:30am 5 6 mph 1022.5mb 41f 41f
4:24am 6 7 mph 1022.2mb 41f 41f
4:18am 5 7 mph 1022.4mb 41f 42f
4:12am 6 7 mph 1022.5mb 41f 41f
4:06am 5 6 mph 1022.4mb 41f 41f
4:00am 3 6 mph 1022.3mb 41f 41f
3:54am 7 8 mph 1022.2mb 41f 42f
3:48am 5 6 mph 1022.5mb 41f 42f
3:36am 2 5 mph 1023mb 41f 41f
3:30am 5 5 mph 1022.8mb 41f 42f
3:24am 5 6 mph 1022.8mb 41f 41f
3:18am 5 6 mph 1022.8mb 41f 40f
3:12am 3 5 mph 1023mb 41f 41f
3:06am 2 6 mph 1022.9mb 42f 41f
3:00am 6 7 mph 1022.8mb 42f 41f
2:54am 6 7 mph 1022.8mb 42f 41f
2:48am 6 8 mph 1022.9mb 41f 41f
2:36am 7 9 mph 1023mb 41f 41f
2:30am 8 9 mph 1022.9mb 41f 40f
2:24am 7 9 mph 1022.9mb 42f 40f
2:18am 8 9 mph 1022.9mb 42f 40f
2:12am 8 9 mph 1022.9mb 42f 40f
2:06am 7 9 mph 1023mb 43f 40f
2:00am 7 9 mph 1022.6mb 43f 40f
1:54am 7 9 mph 1022.6mb 44f 40f
1:48am 8 9 mph 1022.6mb 45f 40f
1:36am 7 9 mph 1022.6mb 45f 40f
1:30am 6 10 mph 1022.5mb 45f 40f
1:24am 8 9 mph 1022.7mb 45f 40f
1:18am 6 9 mph 1022.7mb 46f 40f
1:12am 7 9 mph 1022.7mb 46f 40f
1:06am 7 8 mph 1022.8mb 46f 40f
1:00am 6 9 mph 1022.7mb 46f 40f
12:54am 6 8 mph 1022.8mb 46f 40f
12:48am 6 8 mph 1022.7mb 46f 40f
12:36am 7 9 mph 1022.8mb 46f 40f
12:30am 6 8 mph 1023.1mb 46f 40f
12:24am 5 8 mph 1023.4mb 46f 40f
12:18am 7 9 mph 1023.4mb 46f 40f
12:12am 7 8 mph 1023.3mb 46f 40f
12:06am 3 7 mph 1023.4mb 46f 40f
12:00am 6 8 mph 1023.2mb 46f 40f
Thu 12/14 11:54pm 7 8 mph 1023.1mb 46f 40f
11:48pm 6 9 mph 1023.3mb 46f 40f
11:36pm 6 8 mph 1023.4mb 46f 40f
11:30pm 7 9 mph 1023.3mb 46f 40f
11:24pm 6 9 mph 1023.3mb 46f 39f
11:18pm 7 9 mph 1023.1mb 46f 39f
11:12pm 8 10 mph 1023.4mb 46f 39f
11:06pm 7 10 mph 1023.2mb 46f 39f
11:00pm 7 10 mph 1023mb 46f 39f
10:54pm 8 10 mph 1023.1mb 46f 39f
10:48pm 8 11 mph 1023.1mb 46f 39f
10:36pm 8 10 mph 1023.5mb 46f 39f
10:30pm 9 11 mph 1023.4mb 46f 39f
10:24pm 7 9 mph 1023.8mb 46f 40f
10:18pm 7 9 mph 1023.7mb 46f 40f
10:12pm 7 9 mph 1023.9mb 46f 40f
10:06pm 7 9 mph 1024mb 46f 40f
10:00pm 7 9 mph 1024.1mb 46f 40f
9:54pm 7 9 mph 1024.2mb 46f 40f
9:48pm 6 9 mph 1024.3mb 46f 40f
9:36pm 7 10 mph 1023.9mb 46f 40f
9:30pm 7 10 mph 1024mb 46f 39f
9:24pm 8 10 mph 1024.1mb 46f 39f
9:18pm 7 10 mph 1024.1mb 46f 39f
9:12pm 8 10 mph 1024mb 46f 39f
9:06pm 8 9 mph 1024.1mb 46f 39f
9:00pm 7 10 mph 1023.9mb 46f 39f
8:54pm 7 9 mph 1023.8mb 46f 40f
8:48pm 8 10 mph 1023.9mb 46f 40f
8:36pm 8 9 mph 1023.9mb 46f 40f
8:30pm 7 8 mph 1024.1mb 46f 39f
8:24pm 6 7 mph 1024.1mb 46f 40f
8:18pm 6 8 mph 1024.5mb 46f 39f
8:12pm 7 9 mph 1024mb 46f 39f
8:06pm 7 8 mph 1023.6mb 46f 39f
8:00pm 6 7 mph 1024.1mb 46f 40f
7:54pm 6 7 mph 1024.2mb 46f 40f
7:48pm 3 8 mph 1024.2mb 46f 40f
7:36pm 7 9 mph 1024.1mb 46f 41f
7:30pm 7 9 mph 1024mb 45f 41f
7:24pm 7 9 mph 1024.2mb 45f 41f
7:18pm 7 9 mph 1024.2mb 45f 41f
7:12pm 7 8 mph 1024.3mb 44f 41f
7:06pm 7 10 mph 1024.2mb 44f 41f
7:00pm 7 9 mph 1024.1mb 43f 41f
6:54pm 7 9 mph 1024.1mb 42f 41f
6:36pm 6 7 mph 1024.1mb 41f 41f
6:30pm 7 8 mph 1024mb 41f 41f
6:24pm 6 8 mph 1024.1mb 41f 41f
6:18pm 6 6 mph 1024.2mb 41f 41f
6:12pm 5 6 mph 1024.2mb 38f 41f
6:06pm 5 6 mph 1024.2mb 39f 42f
6:00pm 5 6 mph 1024.2mb 38f 42f
5:54pm 3 3 mph 1024.4mb 39f 41f
5:48pm 2 3 mph 1024.5mb 39f 41f
5:36pm 2 3 mph 1024.5mb 39f 42f
5:30pm 3 3 mph 1024.6mb 39f 43f
5:24pm 2 3 mph 1024.6mb 38f 42f
5:18pm 2 3 mph 1024.5mb 39f 43f
5:12pm 2 3 mph 1024.7mb 38f 43f
5:06pm  -  1 mph 1024.6mb 39f 43f
5:00pm 1 2 mph 1024.5mb 39f 44f
4:54pm 3 3 mph 1024.4mb 39f 43f
4:48pm 3 5 mph 1024.3mb 39f 44f
4:36pm  -  1 mph 1024.7mb 39f 45f
4:30pm 1 2 mph 1024.7mb 38f 45f
4:24pm 2 2 mph 1024.5mb 38f 45f
4:18pm  -  1 mph 1024.6mb 39f 46f
4:12pm 1 2 mph 1024.5mb 38f 46f
4:06pm 1 2 mph 1024.6mb 39f 46f
4:00pm 2 2 mph 1024.5mb 39f 46f
3:54pm  -  1 mph 1024.7mb 38f 47f
3:48pm  -  1 mph 1024.8mb 38f 47f
3:36pm  -  0 mph 1024.6mb 38f 47f
3:30pm  -  1 mph 1024.6mb 38f 47f
3:24pm 1 1 mph 1024.6mb 38f 47f
3:18pm 1 1 mph 1024.8mb 38f 47f
3:12pm  -  1 mph 1024.9mb 38f 47f
3:06pm  -  2 mph 1024.9mb 39f 47f
3:00pm 2 3 mph 1025.1mb 39f 47f
2:54pm 2 3 mph 1025mb 39f 47f
2:48pm 1 2 mph 1024.9mb 39f 47f
1:54pm 1 2 mph 1025.2mb 38f 47f
1:48pm 2 2 mph 1025.2mb 39f 47f
12:54pm 3 5 mph 1025mb 43f 46f
12:48pm 3 5 mph 1025.1mb 44f 47f
11:54am 3 7 mph 1025.5mb 44f 45f
11:48am 6 7 mph 1025.7mb 45f 45f
11:36am 3 5 mph 1026mb 45f 44f
11:30am 3 5 mph 1026.1mb 45f 44f
11:24am 2 5 mph 1026.2mb 45f 43f
11:18am 3 6 mph 1026.1mb 45f 42f
11:12am 5 7 mph 1025.9mb 45f 42f
11:06am 3 6 mph 1026mb 45f 42f
11:00am 3 8 mph 1026mb 45f 41f
10:54am 8 10 mph 1026.1mb 45f 40f
10:48am 9 11 mph 1026.1mb 45f 40f
10:36am 8 10 mph 1026.3mb 45f 39f
10:30am 9 11 mph 1026.3mb 45f 39f
10:24am 8 11 mph 1026.4mb 45f 38f
10:18am 9 13 mph 1026.4mb 45f 38f
10:12am 10 14 mph 1026.3mb 45f 37f
10:06am 10 14 mph 1026.4mb 45f 37f
10:00am 8 10 mph 1026.6mb 45f 37f
9:54am 7 10 mph 1026.7mb 45f 37f
9:48am 8 11 mph 1026.7mb 45f 37f
9:36am 6 9 mph 1027mb 45f 37f
9:30am 6 9 mph 1027mb 46f 36f
9:24am 8 11 mph 1027.1mb 46f 37f
9:18am 8 10 mph 1027.1mb 46f 37f
9:12am 7 9 mph 1027.3mb 46f 36f
9:06am 5 8 mph 1027.3mb 46f 37f
9:00am 6 7 mph 1027.3mb 45f 36f
8:54am 5 6 mph 1027.2mb 45f 36f
8:48am 5 8 mph 1027.1mb 45f 37f
8:36am 2 7 mph 1027mb 45f 36f
8:30am 5 9 mph 1027mb 45f 37f
8:24am 6 10 mph 1026.9mb 45f 37f
8:18am 7 11 mph 1026.8mb 45f 36f
8:12am 8 10 mph 1026.6mb 45f 36f
8:06am 8 10 mph 1026.4mb 45f 36f
8:00am 7 11 mph 1026.4mb 45f 37f
7:54am 9 10 mph 1026.4mb 45f 36f
7:48am 6 8 mph 1026.5mb 45f 36f
7:36am 5 7 mph 1026.3mb 46f 36f
7:30am  -  6 mph 1026.3mb 47f 36f
7:24am 3 7 mph 1026.1mb 46f 36f
7:18am 5 8 mph 1026mb 46f 36f
7:12am 6 10 mph 1026.1mb 46f 36f
7:06am 6 9 mph 1026.2mb 46f 36f
7:00am 8 11 mph 1026.2mb 46f 37f
6:54am 9 11 mph 1026.2mb 46f 37f
6:48am 9 14 mph 1026.1mb 46f 37f
6:36am 9 11 mph 1026.2mb 46f 36f
6:30am 7 10 mph 1026.3mb 46f 36f
6:24am 8 13 mph 1026.5mb 46f 36f
6:18am 9 11 mph 1026.5mb 45f 36f
6:12am 9 14 mph 1026.5mb 45f 36f
6:06am 10 14 mph 1026.4mb 45f 36f
6:00am 10 14 mph 1026.3mb 45f 36f
5:54am 8 9 mph 1026.4mb 46f 36f
5:48am 8 10 mph 1026.6mb 45f 36f
5:36am 7 10 mph 1026.8mb 45f 36f
5:30am 7 9 mph 1026.7mb 45f 35f
5:24am 6 9 mph 1026.6mb 45f 36f
5:18am 6 7 mph 1026.6mb 45f 36f
5:12am 5 6 mph 1026.6mb 44f 36f
5:06am 2 3 mph 1026.7mb 44f 37f
5:00am 3 7 mph 1026.8mb 44f 37f
4:54am 6 8 mph 1026.8mb 44f 38f
4:36am 6 8 mph 1027mb 42f 38f
4:30am 7 8 mph 1026.9mb 42f 38f
4:24am 6 8 mph 1026.9mb 42f 38f
4:18am 7 8 mph 1026.9mb 41f 37f
4:12am 6 7 mph 1027mb 41f 36f
4:06am 5 6 mph 1027.1mb 41f 37f
4:00am 5 7 mph 1026.9mb 41f 38f
3:54am 5 5 mph 1026.9mb 41f 39f
3:48am 5 7 mph 1027mb 41f 40f
3:36am 7 9 mph 1027mb 41f 39f
3:30am 2 5 mph 1027.1mb 41f 39f
3:24am 5 6 mph 1026.9mb 41f 39f
3:18am 6 7 mph 1026.9mb 41f 38f
3:12am 5 7 mph 1026.9mb 41f 38f
3:06am 5 9 mph 1026.8mb 40f 37f
3:00am 6 13 mph 1026.5mb 40f 38f
2:54am 9 14 mph 1026.5mb 40f 38f
2:48am 10 14 mph 1026.5mb 40f 38f
2:36am 11 15 mph 1026.5mb 40f 38f
2:30am 13 15 mph 1026.6mb 41f 37f
2:24am 11 14 mph 1026.5mb 41f 38f
2:18am 13 15 mph 1026.5mb 41f 38f
2:12am 13 16 mph 1026.4mb 41f 38f
2:06am 13 15 mph 1026.5mb 41f 37f
2:00am 11 15 mph 1026.6mb 41f 37f
1:54am 13 15 mph 1026.7mb 41f 37f
1:48am 10 15 mph 1026.7mb 41f 37f
1:36am 11 15 mph 1026.8mb 42f 36f
1:30am 10 15 mph 1026.8mb 42f 37f
1:24am 9 14 mph 1026.8mb 42f 37f
1:18am 9 13 mph 1026.9mb 42f 37f
1:12am 8 9 mph 1027.2mb 42f 37f
1:06am 6 9 mph 1027.4mb 42f 38f
1:00am 8 9 mph 1027.5mb 43f 38f
12:54am 7 8 mph 1027.7mb 43f 37f
12:48am 6 7 mph 1027.8mb 44f 38f
12:36am 6 7 mph 1028mb 43f 37f
12:30am 6 8 mph 1027.9mb 44f 37f
12:24am 6 8 mph 1028mb 44f 37f
12:18am 6 8 mph 1028.1mb 45f 37f
12:12am 6 8 mph 1028.1mb 45f 37f
12:06am 6 7 mph 1028.3mb 45f 36f
12:00am 5 7 mph 1028.3mb 45f 38f
Wed 12/13 11:54pm 6 6 mph 1028.4mb 45f 38f
11:48pm 5 5 mph 1028.4mb 45f 38f
11:36pm 3 5 mph 1028.6mb 45f 37f
11:30pm 3 3 mph 1028.6mb 45f 36f
11:24pm 3 3 mph 1028.6mb 45f 37f
11:18pm 3 3 mph 1028.6mb 45f 37f
11:12pm 3 3 mph 1028.6mb 45f 37f
11:06pm 1 3 mph 1028.6mb 45f 37f
11:00pm 3 5 mph 1028.5mb 45f 37f
10:54pm 3 5 mph 1028.4mb 45f 37f
10:48pm 5 6 mph 1028.4mb 45f 38f
10:36pm 3 3 mph 1028.4mb 46f 38f
10:30pm  -  2 mph 1028.4mb 46f 38f
10:24pm 2 6 mph 1028.3mb 46f 38f
10:18pm 5 7 mph 1028.2mb 46f 39f
10:12pm 6 8 mph 1028.2mb 46f 40f
10:06pm 6 8 mph 1028.2mb 46f 40f
10:00pm 7 8 mph 1028.1mb 46f 40f
9:54pm 7 9 mph 1028mb 46f 40f
9:48pm 7 8 mph 1028mb 46f 40f
9:36pm 8 9 mph 1028.1mb 46f 40f
9:30pm 7 8 mph 1028.2mb 46f 40f
9:24pm 6 8 mph 1028.1mb 46f 40f
9:18pm 6 8 mph 1028.2mb 46f 40f
9:12pm 7 9 mph 1028.2mb 46f 40f
9:06pm 7 9 mph 1028mb 46f 40f
9:00pm 7 9 mph 1028mb 46f 40f
8:54pm 7 9 mph 1027.9mb 46f 40f
8:48pm 7 8 mph 1028mb 46f 39f
8:36pm 6 7 mph 1028.1mb 46f 39f
8:30pm 6 8 mph 1028.1mb 46f 39f
8:24pm 6 8 mph 1028.3mb 46f 40f
8:18pm 6 8 mph 1028.3mb 46f 40f
8:12pm 6 8 mph 1028.3mb 46f 40f
8:06pm 5 9 mph 1028.2mb 46f 40f
8:00pm 2 5 mph 1028.3mb 46f 40f
7:54pm 3 5 mph 1028.3mb 46f 40f
7:48pm 5 6 mph 1028.2mb 45f 40f
7:36pm 3 7 mph 1028.2mb 45f 40f
7:30pm 6 7 mph 1028.2mb 46f 40f
7:24pm 3 5 mph 1028.5mb 45f 40f
7:18pm 2 3 mph 1028.5mb 45f 40f
7:12pm 2 5 mph 1028.2mb 45f 40f
7:06pm 3 5 mph 1028.2mb 45f 40f
7:00pm 5 6 mph 1028.4mb 45f 40f
6:54pm 3 5 mph 1028.6mb 45f 41f
6:48pm 3 5 mph 1028.6mb 44f 41f
6:36pm 2 8 mph 1028.4mb 44f 40f
6:30pm 6 9 mph 1028.3mb 44f 41f
6:24pm 6 8 mph 1028.1mb 44f 41f
6:18pm 5 8 mph 1028.2mb 44f 41f
6:12pm 6 8 mph 1028.2mb 43f 41f
6:06pm 6 6 mph 1028.2mb 42f 41f
6:00pm 6 7 mph 1028.3mb 41f 41f
5:54pm 3 6 mph 1028.2mb 41f 42f
5:48pm 3 6 mph 1028.2mb 40f 42f
5:36pm 2 2 mph 1028.2mb 40f 42f
5:30pm 2 3 mph 1028.4mb 40f 42f
5:24pm 2 3 mph 1028.3mb 40f 43f
5:18pm 3 5 mph 1028.3mb 40f 43f
5:12pm 1 2 mph 1028.2mb 40f 43f
5:06pm 1 2 mph 1028.3mb 40f 43f
5:00pm 2 5 mph 1028.3mb 40f 43f
4:54pm 3 5 mph 1028.2mb 40f 43f
4:48pm 2 5 mph 1028mb 40f 43f
4:36pm 3 5 mph 1027.9mb 40f 43f
4:30pm 2 3 mph 1027.9mb 40f 43f
4:24pm  -  3 mph 1027.8mb 40f 43f
4:18pm  -  3 mph 1027.8mb 39f 43f
4:12pm 2 2 mph 1027.9mb 39f 43f
4:06pm 2 3 mph 1027.8mb 39f 43f
4:00pm 2 5 mph 1027.9mb 39f 43f
3:54pm 5 6 mph 1028.1mb 39f 43f
3:36pm 6 8 mph 1028.2mb 39f 43f
3:30pm 6 8 mph 1028.3mb 39f 42f
3:24pm 8 9 mph 1028.3mb 39f 43f
3:18pm 6 7 mph 1028.1mb 39f 43f
3:12pm 5 7 mph 1028mb 39f 43f
3:06pm 6 7 mph 1027.9mb 39f 43f
3:00pm 3 6 mph 1027.9mb 39f 43f
2:54pm 5 6 mph 1027.9mb 39f 42f
2:48pm 5 6 mph 1027.9mb 39f 42f
2:36pm 6 8 mph 1028mb 38f 43f
2:30pm 6 7 mph 1027.8mb 38f 43f
2:24pm 5 7 mph 1027.8mb 38f 43f
2:18pm 5 7 mph 1027.7mb 38f 43f
2:12pm 6 7 mph 1027.8mb 38f 43f
2:06pm 5 6 mph 1027.8mb 38f 43f
2:00pm 6 7 mph 1027.7mb 38f 44f
1:54pm 1 3 mph 1027.7mb 39f 44f
1:36pm 1 2 mph 1027.8mb 39f 43f
1:30pm 1 3 mph 1027.8mb 40f 43f
1:24pm  -  3 mph 1027.9mb 40f 43f
1:18pm 3 5 mph 1028mb 40f 43f
1:12pm 3 5 mph 1028mb 40f 43f
1:06pm 2 5 mph 1028.1mb 40f 43f
1:00pm 3 7 mph 1028.1mb 40f 43f
12:54pm 6 7 mph 1028.2mb 41f 43f
12:48pm 3 5 mph 1028.4mb 41f 43f
12:36pm 5 5 mph 1028.5mb 43f 43f
12:30pm  -  6 mph 1028.6mb 44f 43f
12:24pm 2 8 mph 1028.5mb 45f 42f
12:18pm 6 8 mph 1028.5mb 44f 42f
12:12pm 6 7 mph 1028.6mb 45f 42f
12:06pm 5 7 mph 1028.6mb 45f 42f
12:00pm 3 5 mph 1028.8mb 45f 42f
11:54am 2 5 mph 1029mb 45f 42f
11:48am 5 6 mph 1029.1mb 45f 42f
11:36am 5 6 mph 1029.3mb 45f 42f
11:30am 3 7 mph 1029.4mb 45f 42f
11:24am 6 7 mph 1029.5mb 46f 42f
11:18am 6 9 mph 1029.6mb 45f 42f
11:12am 6 7 mph 1029.6mb 45f 42f
11:06am 6 8 mph 1029.7mb 46f 42f
11:00am 6 8 mph 1029.8mb 45f 42f
10:54am 5 6 mph 1029.9mb 46f 42f
10:48am 5 6 mph 1029.8mb 46f 42f
10:36am 5 6 mph 1029.9mb 46f 42f
10:30am 7 7 mph 1030.2mb 46f 41f
10:24am 5 7 mph 1030.2mb 45f 39f
10:18am 1 2 mph 1030.1mb 46f 38f
10:12am 2 2 mph 1030mb 46f 38f
10:06am 2 3 mph 1030mb 46f 38f
10:00am 3 6 mph 1029.8mb 46f 38f
9:54am 5 6 mph 1029.7mb 46f 37f
9:48am 2 6 mph 1029.6mb 46f 36f
9:36am 6 8 mph 1029.2mb 46f 36f
9:30am 6 10 mph 1029.2mb 46f 36f
9:24am 7 9 mph 1029.2mb 46f 36f
9:18am 5 8 mph 1029.2mb 46f 36f
9:12am 5 8 mph 1029.2mb 46f 36f
9:06am 6 7 mph 1029.4mb 46f 36f
9:00am 5 7 mph 1029.6mb 46f 36f
8:54am 6 7 mph 1029.7mb 46f 36f
8:48am 5 7 mph 1029.7mb 46f 36f
8:36am 6 7 mph 1029.8mb 46f 36f
8:30am 5 7 mph 1029.8mb 46f 36f
8:24am 5 6 mph 1029.8mb 46f 36f
8:18am 3 6 mph 1029.8mb 46f 36f
8:12am 5 6 mph 1029.9mb 46f 37f
8:06am 5 6 mph 1029.8mb 46f 37f
8:00am 5 6 mph 1029.8mb 46f 37f
7:54am 5 7 mph 1029.7mb 46f 37f
7:48am 3 5 mph 1029.7mb 46f 37f
7:36am 2 3 mph 1029.8mb 46f 38f
7:30am  -  3 mph 1029.8mb 46f 38f
7:24am 2 6 mph 1029.7mb 46f 38f
7:18am 5 6 mph 1029.6mb 46f 38f
7:12am 1 5 mph 1029.6mb 46f 38f
7:06am 3 7 mph 1029.5mb 46f 38f
7:00am 5 9 mph 1029.4mb 46f 38f
6:54am 7 9 mph 1029.3mb 46f 38f
6:36am 6 7 mph 1029.5mb 46f 38f
6:30am 7 9 mph 1029.6mb 46f 38f
6:24am 7 9 mph 1029.5mb 46f 38f
6:18am 6 8 mph 1029.4mb 46f 38f
6:12am 7 8 mph 1029.4mb 46f 38f
6:06am 6 8 mph 1029.4mb 46f 38f
6:00am 6 7 mph 1029.3mb 46f 38f
5:54am 6 8 mph 1029.3mb 46f 38f
5:48am 7 8 mph 1029.2mb 46f 38f
5:36am 6 9 mph 1029.1mb 46f 38f
5:30am 6 8 mph 1029.2mb 46f 38f
5:24am 7 8 mph 1029.3mb 46f 38f
5:18am 6 7 mph 1029.2mb 46f 38f
5:12am 6 7 mph 1029.2mb 46f 38f
5:06am 6 7 mph 1029.2mb 45f 38f
5:00am 5 7 mph 1029.2mb 46f 38f
4:54am 6 9 mph 1029.3mb 45f 38f